Location: Newark
(51.2625°N, 13.3939°E)
Time: 11:05:41
(UTC+00:00)

N. Korean satellite - Visible Passes

Search period start: 14 October 2019 00:00
Search period end: 24 October 2019 00:00
Orbit: 455 x 508 km, 97.2° (Epoch: 13 October)

Date Brightness Start Highest point End Pass type
(mag) Time Alt. Az. Time Alt. Az. Time Alt. Az.
14 Oct 9.9 04:12:58 10° NE 04:15:28 18° E 04:18:01 10° SE visible
16 Oct 7.6 04:55:02 10° NNE 04:58:31 52° E 05:02:04 10° S visible
16 Oct 10.0 17:10:12 10° SW 17:12:26 16° W 17:14:41 10° NW visible
17 Oct 9.1 04:30:01 10° NE 04:33:07 27° E 04:36:16 10° SSE visible
17 Oct 8.9 16:43:54 10° SSW 16:46:57 30° W 16:50:02 10° NNW visible
18 Oct 10.0 04:05:26 10° NE 04:07:39 15° E 04:09:52 10° SE visible
19 Oct 10.5 17:29:19 10° W 17:30:06 11° W 17:30:53 10° WNW visible
20 Oct 8.1 04:47:15 10° NNE 04:50:43 43° E 04:54:12 10° S visible
20 Oct 9.7 17:01:59 10° SW 17:04:33 19° W 17:07:08 10° NW visible
21 Oct 9.4 04:22:19 10° NE 04:25:17 23° E 04:28:15 10° SSE visible
21 Oct 8.4 16:35:53 10° SSW 16:39:04 36° W 16:42:20 10° NNW visible
22 Oct 10.2 03:57:57 10° ENE 03:59:45 13° E 04:01:34 10° ESE visible
23 Oct 7.0 05:04:36 10° NNE 05:08:14 69° ESE 05:11:53 10° S visible
23 Oct 10.2 17:20:30 10° WSW 17:22:10 13° W 17:23:50 10° WNW visible
